Showing default

MEV-1, 44625

Orbit data source: Space-Track

MEV-1, 44625 is a payload satellite owned by Space Logistics (US) in GEO that was launched on Wed, 09 Oct 2019 UTC via a PROTON-M/BRIZ-M launch vehicle from the Tyuratam Missile And Space Complex (TTMTR). Payloads include a variety of satellites, spacecraft, and rockets equipped with specific instruments for various scientific and technological missions. These include communications satellites like Starlink; space stations such as the ISS; scientific satellites like the Hubble; Earth observation satellites from companies like Planet Labs, Umbra, and HawkEye 360; GPS; miniature CubeSats for education and research; and military/defense satellites.

Not visible in the next 10 days
MEV-1 details
Identifier
44625, 2019-067B
Orbit
GEO
Last TLE update13 hours ago
Origin
Flag of USSpace Logistics (US)
ManufacturerNGIS SSG
MissionOperational Commercial Technology
Bus & MotorGEOSTAR-3, IHI BT-4?
Mass2,326 kg wet, ~2,000 kg dry
Launch date (UTC)
2019-10-09 (5 years ago)
Launch vehicle
PROTON-M/BRIZ-M
Launch site
Tyuratam Missile And Space Complex (TTMTR)
Object type
Payload
Rocket body
Debris
Shape & HBRBox + 2 Pan, Unknown HBR
Radar Cross Section30.713 m², Large (>1 m²)

Expand to show TLE details & history

TLE from 13 hours ago
0 MEV-1
1 44625U 19067B   24346.41091325 -.00000186  00000-0  00000-0 0  9994
2 44625   0.0473  92.0875 0001372 203.1978 265.7616  1.00268734 18790
Epoch: 2024-12-11T09:51Z
Definitive object data (Epoch: 2024-12-11T09:51:42.904Z)
Latitude0.01772°
Longitude-27.51958°
Altitude35,787.343 km
Speed3.075 km/s
True Right ascension13h 24m 03s
True Declination0° 01' 04"
Sunlit
Object was in daylight at TLE epoch
Visualization TLE readout
Latitude-0.00655°
Longitude172.28593°
Altitude35,788.551 km
Speed3.075 km/s
Apparent Right ascension03h 09m 50s
Apparent Declination-5° 37' 23"
Sunlit
Object is in daylight
Visualization observer readout
Local Sidereal Time21:32:47
Azimuth97.99° ESE
Elevation0.77°
Doppler factor1
Orbital elements
Apogee altitude35,794.306 km
Perigee altitude35,782.735 km
Semi-major axis42,166.658 km
Eccentricity0.0001372
Inclination0.0473°
RAAN92.0875°
Arg. of periapsis203.1978°
True anomaly265.74592°
Mean anomaly265.7616°
Eccentric anomaly265.75376°
Mean motion0.25066 °/min
BSTARUnknown
Orbital period1436.19 mins
Loading historical data...
44625 neighbors
Authenticating...
Loading maneuver chart data...
Loading historical data...
Loading historical data...
Loading historical data...
Loading historical data...
Loading historical data...
Loading historical data...
Loading historical data...
Other satellites on launch #67 in the year 2019 (2019-10-09 UTC)

MEV-1 Visibility forecast

Observer location: undefined°, undefined

MEV-1 is not visible in the next 10 days
Span
Click to sort rows by Start time (UTC) header in descending order
Start Az.
Max El. time (UTC)
Max El. Az.
Max El.
End time (UTC)
End Az.
|